Birmingham, United Kingdom

9:41 AM GMT on February 21, 2018 (GMT +0000)
Birmingham

Weather History for EGBB - May, 2013

Change the Weather History Date:

Saturday, May 18, 2013

  Actual Average Record
Temperature  
Mean Temperature 50 °F -  
Max Temperature 55 °F 64 °F 71 °F (2014)
Min Temperature 46 °F 47 °F 33 °F (2005)
Degree Days  
Heating Degree Days 14    
Moisture  
Dew Point 44 °F    
Average Humidity 79    
Maximum Humidity 93    
Minimum Humidity 63    
Precipitation  
Precipitation 0.00 in 0.07 in - ()
Sea Level Pressure  
Sea Level Pressure 29.75 in    
Wind  
Wind Speed 7 mph ()    
Max Wind Speed 16 mph    
Max Gust Speed -    
Visibility 6.0 miles    
Events Rain    
Averages and records for this station are not official NWS values.
T = Trace of Precipitation, MM = Missing Value Source: Averaged Metar Reports

Daily Weather History Graph

Daily Weather History Graph

Search for Another Location

Airport or City:

Trip Planner

Search our weather history database for the weather conditions in past years. The results will help you decide how hot, cold, wet, or windy it might be!

Date:

Astronomy

May. 18, 2013 Rise Set
Actual Time 5:06 AM BST 9:01 PM BST
Civil Twilight 4:22 AM BST 9:45 PM BST
Nautical Twilight 3:21 AM BST 10:47 PM BST
Astronomical Twilight 1:09 AM BST 12:30 AM BST
Moon 12:55 PM BST (5/18) 1:49 AM BST (5/18)
Length of Visible Light 17h 22m
Length of Day
15h 54m
First Quarter, 53% of the Moon is Illuminated
May 18
First Quarter
May 25
Full
May 31
Last Quarter
Jun 8
New
Jun 16
First Quarter

Hourly Weather History & Observations

Time (BST) Temp. Windchill Dew Point Humidity Pressure Visibility Wind Dir Wind Speed Gust Speed Precip Events Conditions
12:20 AM 46.4 °F 45.2 °F 42.8 °F 87% 29.83 in 5.6 mi WNW 3.5 mph - N/A Rain Light Rain
12:50 AM 46.4 °F 45.2 °F 42.8 °F 87% 29.83 in 6.2 mi NW 3.5 mph - N/A   Overcast
1:20 AM 46.4 °F 44.3 °F 42.8 °F 87% 29.80 in 6.2 mi NW 4.6 mph - N/A   Overcast
1:50 AM 46.4 °F 44.3 °F 42.8 °F 87% 29.80 in 5.6 mi West 4.6 mph - N/A Rain Light Rain
2:20 AM 46.4 °F 42.9 °F 42.8 °F 87% 29.80 in 5.6 mi WNW 6.9 mph - N/A   Overcast
2:50 AM 46.4 °F 42.9 °F 44.6 °F 93% 29.77 in 4.3 mi WNW 6.9 mph - N/A   Overcast
3:20 AM 46.4 °F 42.9 °F 44.6 °F 93% 29.77 in 5.0 mi WNW 6.9 mph - N/A   Overcast
3:50 AM 48.2 °F - 44.6 °F 87% 29.77 in 4.3 mi WNW 6.9 mph - N/A   Overcast
4:20 AM 48.2 °F - 44.6 °F 87% 29.77 in 5.6 mi WNW 8.1 mph - N/A   Overcast
4:50 AM 46.4 °F 42.9 °F 44.6 °F 93% 29.77 in 5.6 mi WNW 6.9 mph - N/A   Mostly Cloudy
5:20 AM 46.4 °F 42.4 °F 42.8 °F 87% 29.77 in 4.3 mi WNW 8.1 mph - N/A   Scattered Clouds
5:50 AM 46.4 °F 42.4 °F 42.8 °F 87% 29.77 in 5.6 mi WNW 8.1 mph - N/A   Partly Cloudy
6:20 AM 46.4 °F 42.4 °F 42.8 °F 87% 29.77 in 5.6 mi WNW 8.1 mph - N/A   Partly Cloudy
6:50 AM 48.2 °F - 42.8 °F 82% 29.77 in 6.2 mi WNW 8.1 mph - N/A   Scattered Clouds
7:20 AM 48.2 °F - 42.8 °F 82% 29.77 in 6.2 mi WNW 10.4 mph - N/A   Mostly Cloudy
7:50 AM 48.2 °F - 42.8 °F 82% 29.77 in 6.2 mi WNW 11.5 mph - N/A   Mostly Cloudy
8:20 AM 48.2 °F - 42.8 °F 82% 29.77 in 6.2 mi WNW 12.7 mph - N/A   Mostly Cloudy
8:50 AM 48.2 °F - 44.6 °F 87% 29.77 in 6.2 mi WNW 10.4 mph - N/A   Mostly Cloudy
9:20 AM 50.0 °F - 42.8 °F 76% 29.74 in 6.2 mi WNW 12.7 mph - N/A   Overcast
9:50 AM 50.0 °F - 44.6 °F 82% 29.74 in 6.2 mi NW 12.7 mph - N/A   Mostly Cloudy
10:20 AM 50.0 °F - 44.6 °F 82% 29.74 in 6.2 mi WNW 10.4 mph - N/A   Mostly Cloudy
10:50 AM 51.8 °F - 44.6 °F 76% 29.74 in 6.2 mi NW 13.8 mph - N/A   Mostly Cloudy
11:20 AM 51.8 °F - 42.8 °F 71% 29.74 in 6.2 mi WNW 16.1 mph - N/A   Mostly Cloudy
11:50 AM 51.8 °F - 42.8 °F 71% 29.71 in 6.2 mi WNW 12.7 mph - N/A   Overcast
12:20 PM 53.6 °F - 44.6 °F 72% 29.74 in 6.2 mi WNW 13.8 mph - N/A   Mostly Cloudy
12:50 PM 53.6 °F - 42.8 °F 67% 29.71 in 6.2 mi WNW 11.5 mph - N/A   Mostly Cloudy
1:20 PM 53.6 °F - 44.6 °F 72% 29.71 in 6.2 mi WNW 11.5 mph - N/A   Mostly Cloudy
1:50 PM 53.6 °F - 44.6 °F 72% 29.71 in 6.2 mi WNW 11.5 mph - N/A   Overcast
2:20 PM 55.4 °F - 44.6 °F 67% 29.71 in 6.2 mi WNW 10.4 mph - N/A   Mostly Cloudy
2:50 PM 55.4 °F - 44.6 °F 67% 29.71 in 6.2 mi NW 9.2 mph - N/A   Mostly Cloudy
3:20 PM 55.4 °F - 44.6 °F 67% 29.71 in 6.2 mi West 9.2 mph - N/A   Mostly Cloudy
3:50 PM 55.4 °F - 42.8 °F 63% 29.71 in 6.2 mi WNW 8.1 mph - N/A   Mostly Cloudy
4:20 PM 55.4 °F - 44.6 °F 67% 29.71 in 6.2 mi NW 8.1 mph - N/A   Mostly Cloudy
4:50 PM 55.4 °F - 44.6 °F 67% 29.71 in 6.2 mi NW 6.9 mph - N/A   Mostly Cloudy
5:20 PM 55.4 °F - 44.6 °F 67% 29.71 in 6.2 mi NNW 8.1 mph - N/A   Mostly Cloudy
5:50 PM 55.4 °F - 44.6 °F 67% 29.71 in 6.2 mi NNW 6.9 mph - N/A   Mostly Cloudy
6:20 PM 55.4 °F - 44.6 °F 67% 29.71 in 6.2 mi North 5.8 mph - N/A   Mostly Cloudy
6:50 PM 55.4 °F - 44.6 °F 67% 29.71 in 6.2 mi Variable 3.5 mph - N/A   Mostly Cloudy
7:20 PM 55.4 °F - 44.6 °F 67% 29.71 in 6.2 mi NNE 4.6 mph - N/A   Scattered Clouds
7:50 PM 53.6 °F - 46.4 °F 77% 29.74 in 6.2 mi ENE 5.8 mph - N/A   Scattered Clouds
8:20 PM 53.6 °F - 46.4 °F 77% 29.74 in 6.2 mi NE 6.9 mph - N/A   Scattered Clouds
8:50 PM 53.6 °F - 46.4 °F 77% 29.77 in 6.2 mi NE 5.8 mph - N/A   Scattered Clouds
9:20 PM 51.8 °F - 46.4 °F 82% 29.77 in 6.2 mi North 5.8 mph - N/A   Mostly Cloudy
9:50 PM 51.8 °F - 46.4 °F 82% 29.77 in 6.2 mi North 5.8 mph - N/A   Mostly Cloudy
10:20 PM 50.0 °F - 46.4 °F 87% 29.77 in 6.2 mi North 5.8 mph - N/A   Mostly Cloudy
10:50 PM 50.0 °F - 46.4 °F 87% 29.80 in 6.2 mi North 4.6 mph - N/A   Overcast
11:20 PM 50.0 °F - 46.4 °F 87% 29.80 in 6.2 mi North 4.6 mph - N/A   Overcast
11:50 PM 50.0 °F - 46.4 °F 87% 29.80 in 6.2 mi NE 5.8 mph - N/A   Overcast